Location: Boiro
(42.6475°N, 8.8834°W)
Time: 06:52:23
(UTC+01:00)

Vanguard 1 - Pass Details

Date: 06 December 2021
Orbit: 652 x 3830 km, 34.2° (Epoch: 21 January)

Event Time Altitude Azimuth Distance (km) Brightness Sun altitude
Rises 04:29:31 0° 270° (W) 7,837 - -47.2°
Reaches altitude 10° 04:34:48 10° 268° (W) 6,913 - -46.2°
Exits shadow 04:55:32 61° 217° (SW) 3,787 12.6 -42.5°
Maximum altitude 04:57:42 63° 196° (SSW) 3,644 12.6 -42.1°
Drops below altitude 10° 05:13:34 10° 120° (ESE) 5,026 14.2 -39.2°
Sets 05:16:44 0° 116° (ESE) 5,688 14.7 -38.6°
